When you browse on this site, cookies collect data to enhance your experience and personalize the content and advertising you see.
Visit our Privacy Policy to learn more. By continuing to use the site, you agree to this use of cookies and data.
  • In Portugal
  • List of Countries
  • For 7 days
  • Water Temperature
  • Weather Map
  • Weather Widgets
  • user-avatar
    Login

    Hourly Weather Tskhinvali

    Today, 27 May, Wednesday

    Time Temperature Precipitation Wind Pressure Humidity
    00:00 +14°C° 0 mm 2 mps 686 mmHg 64%
    01:00 +13°C° 0 mm 3 mps 686 mmHg 64%
    02:00 +12°C° 0 mm 3 mps 685 mmHg 63%
    03:00 +12°C° 0 mm 3 mps 686 mmHg 61%
    04:00 +13°C° 0 mm 3 mps 686 mmHg 64%
    05:00 +13°C° 0 mm 3 mps 686 mmHg 67%
    06:00 +14°C° 0 mm 3 mps 686 mmHg 70%
    07:00 +15°C° 0 mm 4 mps 686 mmHg 66%
    08:00 +17°C° 0 mm 5 mps 686 mmHg 62%
    09:00 +20°C° 0 mm 5 mps 687 mmHg 58%
    10:00 +21°C° 0 mm 6 mps 687 mmHg 56%
    11:00 +22°C° 0 mm 6 mps 687 mmHg 54%
    12:00 +23°C° 0 mm 6 mps 687 mmHg 53%
    13:00 +23°C° 0 mm 6 mps 686 mmHg 54%
    14:00 +23°C° 0 mm 6 mps 686 mmHg 54%
    15:00 +23°C° 0 mm 5 mps 686 mmHg 55%
    16:00 +23°C° 0 mm 5 mps 686 mmHg 60%
    17:00 +22°C° 0 mm 4 mps 685 mmHg 64%
    18:00 +21°C° 0 mm 3 mps 685 mmHg 68%
    19:00 +19°C° 0 mm 3 mps 685 mmHg 71%
    20:00 +18°C° 0 mm 3 mps 685 mmHg 74%
    21:00 +16°C° 0 mm 3 mps 685 mmHg 77%
    22:00 +16°C° 0 mm 2 mps 684 mmHg 75%
    23:00 +15°C° 0 mm 2 mps 684 mmHg 72%

    Tomorrow, 28 May, Thursday

    Time Temperature Precipitation Wind Pressure Humidity
    00:00 +15°C° 0 mm 2 mps 684 mmHg 70%
    01:00 +15°C° 0 mm 2 mps 684 mmHg 68%
    02:00 +15°C° 0 mm 2 mps 684 mmHg 66%
    03:00 +15°C° 0 mm 2 mps 684 mmHg 64%
    04:00 +15°C° 0 mm 2 mps 684 mmHg 65%
    05:00 +16°C° 0 mm 2 mps 684 mmHg 65%
    06:00 +17°C° 0 mm 2 mps 684 mmHg 65%
    07:00 +19°C° 0 mm 2 mps 684 mmHg 60%
    08:00 +21°C° 0 mm 3 mps 684 mmHg 56%
    09:00 +24°C° 0 mm 3 mps 684 mmHg 51%
    10:00 +26°C° 0 mm 3 mps 684 mmHg 49%
    11:00 +27°C° 0 mm 3 mps 684 mmHg 46%
    12:00 +28°C° 0 mm 4 mps 684 mmHg 44%
    13:00 +28°C° 0 mm 4 mps 684 mmHg 43%
    14:00 +29°C° 0 mm 3 mps 684 mmHg 42%
    15:00 +29°C° 0 mm 3 mps 683 mmHg 42%
    16:00 +28°C° 0 mm 3 mps 683 mmHg 49%
    17:00 +27°C° 0 mm 3 mps 683 mmHg 55%
    18:00 +26°C° 0 mm 2 mps 683 mmHg 62%
    19:00 +24°C° 0 mm 2 mps 683 mmHg 66%
    20:00 +20°C° 0 mm 2 mps 683 mmHg 70%
    21:00 +18°C° 0 mm 2 mps 682 mmHg 75%
    22:00 +17°C° 0.1 mm 2 mps 682 mmHg 77%
    23:00 +16°C° 0.1 mm 1 mps 682 mmHg 80%

    Day after tomorrow, 29 May, Friday

    Time Temperature Precipitation Wind Pressure Humidity
    00:00 +15°C° 0.1 mm 1 mps 682 mmHg 83%
    01:00 +16°C° 0.1 mm 1 mps 682 mmHg 82%
    02:00 +16°C° 0.1 mm 1 mps 681 mmHg 80%
    03:00 +16°C° 0.1 mm 2 mps 681 mmHg 79%
    04:00 +17°C° 0 mm 2 mps 681 mmHg 77%
    05:00 +17°C° 0 mm 2 mps 681 mmHg 75%
    06:00 +18°C° 0 mm 2 mps 681 mmHg 74%
    07:00 +20°C° 0 mm 2 mps 681 mmHg 66%
    08:00 +22°C° 0 mm 3 mps 681 mmHg 59%
    09:00 +26°C° 0 mm 4 mps 681 mmHg 52%
    10:00 +27°C° 0 mm 5 mps 680 mmHg 49%
    11:00 +28°C° 0 mm 5 mps 680 mmHg 46%
    12:00 +29°C° 0 mm 6 mps 680 mmHg 44%
    13:00 +29°C° 0.1 mm 6 mps 680 mmHg 46%
    14:00 +28°C° 0.1 mm 6 mps 679 mmHg 49%
    15:00 +28°C° 0.1 mm 5 mps 679 mmHg 52%
    16:00 +25°C° 1.9 mm 5 mps 678 mmHg 65%
    17:00 +21°C° 1.9 mm 4 mps 678 mmHg 79%
    18:00 +17°C° 1.9 mm 4 mps 677 mmHg 92%
    19:00 +17°C° 2.6 mm 3 mps 678 mmHg 93%
    20:00 +16°C° 2.6 mm 3 mps 678 mmHg 95%
    21:00 +15°C° 2.6 mm 2 mps 679 mmHg 97%
    22:00 +14°C° 0.4 mm 2 mps 679 mmHg 97%
    23:00 +14°C° 0.4 mm 2 mps 679 mmHg 97%

    30 May, Saturday

    Time Temperature Precipitation Wind Pressure Humidity
    00:00 +13°C° 0.4 mm 2 mps 679 mmHg 97%
    01:00 +13°C° 0 mm 2 mps 679 mmHg 96%
    02:00 +13°C° 0 mm 2 mps 679 mmHg 96%
    03:00 +13°C° 0 mm 2 mps 679 mmHg 95%
    04:00 +13°C° 0 mm 2 mps 680 mmHg 95%
    05:00 +13°C° 0 mm 2 mps 680 mmHg 94%
    06:00 +13°C° 0 mm 2 mps 680 mmHg 94%
    07:00 +13°C° 0 mm 3 mps 681 mmHg 90%
    08:00 +14°C° 0 mm 3 mps 681 mmHg 87%
    09:00 +14°C° 0 mm 3 mps 681 mmHg 83%
    10:00 +15°C° 0 mm 4 mps 681 mmHg 77%
    11:00 +18°C° 0 mm 4 mps 682 mmHg 70%
    12:00 +19°C° 0 mm 4 mps 682 mmHg 64%
    13:00 +19°C° 0 mm 4 mps 682 mmHg 62%
    14:00 +20°C° 0 mm 5 mps 682 mmHg 59%
    15:00 +20°C° 0 mm 5 mps 682 mmHg 57%
    16:00 +19°C° 0 mm 5 mps 682 mmHg 62%
    17:00 +18°C° 0 mm 4 mps 682 mmHg 67%
    18:00 +17°C° 0 mm 4 mps 682 mmHg 72%
    19:00 +16°C° 0 mm 3 mps 683 mmHg 78%
    20:00 +13°C° 0 mm 3 mps 683 mmHg 83%
    21:00 +13°C° 0 mm 2 mps 683 mmHg 89%
    22:00 +13°C° 0 mm 2 mps 683 mmHg 88%
    23:00 +13°C° 0 mm 2 mps 683 mmHg 87%

    31 May, Sunday

    Time Temperature Precipitation Wind Pressure Humidity
    00:00 +13°C° 0 mm 2 mps 683 mmHg 86%
    01:00 +12°C° 0 mm 2 mps 683 mmHg 84%
    02:00 +10°C° 0 mm 2 mps 683 mmHg 81%
    03:00 +10°C° 0 mm 1 mps 683 mmHg 78%
    04:00 +11°C° 0 mm 1 mps 683 mmHg 75%
    05:00 +12°C° 0 mm 1 mps 683 mmHg 71%
    06:00 +13°C° 0 mm 1 mps 684 mmHg 68%
    07:00 +15°C° 0 mm 1 mps 684 mmHg 61%
    08:00 +18°C° 0 mm 1 mps 684 mmHg 54%
    09:00 +19°C° 0 mm 2 mps 684 mmHg 47%
    10:00 +21°C° 0 mm 2 mps 685 mmHg 42%
    11:00 +23°C° 0 mm 2 mps 685 mmHg 38%
    12:00 +24°C° 0 mm 3 mps 685 mmHg 34%
    13:00 +25°C° 0 mm 3 mps 685 mmHg 33%
    14:00 +25°C° 0 mm 3 mps 684 mmHg 33%
    15:00 +25°C° 0 mm 3 mps 684 mmHg 32%
    16:00 +24°C° 0 mm 2 mps 684 mmHg 39%
    17:00 +23°C° 0 mm 2 mps 684 mmHg 47%
    18:00 +21°C° 0 mm 2 mps 683 mmHg 54%
    19:00 +19°C° 0 mm 2 mps 683 mmHg 57%
    20:00 +17°C° 0 mm 2 mps 683 mmHg 60%
    21:00 +15°C° 0 mm 2 mps 684 mmHg 63%
    22:00 +14°C° 0 mm 2 mps 683 mmHg 61%
    23:00 +14°C° 0 mm 1 mps 683 mmHg 60%

    1 June, Monday

    Time Temperature Precipitation Wind Pressure Humidity
    00:00 +14°C° 0 mm 1 mps 683 mmHg 59%
    01:00 +14°C° 0 mm 2 mps 683 mmHg 59%
    02:00 +13°C° 0 mm 2 mps 682 mmHg 60%
    03:00 +13°C° 0 mm 2 mps 682 mmHg 61%
    04:00 +14°C° 0 mm 2 mps 682 mmHg 64%
    05:00 +14°C° 0 mm 3 mps 682 mmHg 67%
    06:00 +16°C° 0 mm 3 mps 682 mmHg 70%
    07:00 +17°C° 0 mm 4 mps 682 mmHg 67%
    08:00 +19°C° 0 mm 5 mps 682 mmHg 64%
    09:00 +21°C° 0 mm 6 mps 682 mmHg 61%
    10:00 +22°C° 0.1 mm 6 mps 682 mmHg 59%
    11:00 +22°C° 0.1 mm 6 mps 682 mmHg 57%
    12:00 +23°C° 0.1 mm 6 mps 682 mmHg 55%
    13:00 +24°C° 0.1 mm 6 mps 682 mmHg 55%
    14:00 +24°C° 0.1 mm 6 mps 682 mmHg 55%
    15:00 +24°C° 0.1 mm 6 mps 681 mmHg 55%
    16:00 +23°C° 0.3 mm 5 mps 681 mmHg 59%
    17:00 +22°C° 0.3 mm 4 mps 681 mmHg 63%
    18:00 +22°C° 0.3 mm 3 mps 680 mmHg 67%
    19:00 +20°C° 0.2 mm 3 mps 680 mmHg 70%
    20:00 +18°C° 0.2 mm 3 mps 680 mmHg 74%
    21:00 +16°C° 0.2 mm 2 mps 681 mmHg 77%
    22:00 +16°C° 0.4 mm 2 mps 680 mmHg 80%
    23:00 +15°C° 0.4 mm 2 mps 680 mmHg 83%
    Show more